| time (UTC) | temp C | wind direction | speed KPH | gust KPH | rain 1hr cm | rain 24hr cm | rain mn cm | humidity % | barometer mb |
| 20260510173002 | 16 | 285 | 1.6 | 22.5 | 0.00 | 0.23 | 0.23 | 46 | 1010.7 |
| 20260510170001 | 16 | 295 | 4.8 | 19.3 | 0.00 | 0.23 | 0.23 | 48 | 1010.4 |
| 20260510163001 | 15 | 227 | 11.3 | 19.3 | 0.00 | 0.23 | 0.23 | 60 | 1010.5 |
| 20260510160001 | 13 | 231 | 4.8 | 16.1 | 0.00 | 0.25 | 0.23 | 64 | 1010.6 |
| 20260510153002 | 13 | 295 | 4.8 | 16.1 | 0.00 | 0.28 | 0.23 | 72 | 1010.3 |
| 20260510150001 | 11 | 205 | 1.6 | 4.8 | 0.00 | 0.36 | 0.23 | 86 | 1010.3 |
| 20260510143003 | 9 | 250 | 0.0 | 0.0 | 0.00 | 0.46 | 0.23 | 85 | 1010.2 |
| 20260510140001 | 9 | 75 | 0.0 | 9.7 | 0.00 | 0.58 | 0.23 | 84 | 1009.9 |
| 20260510133001 | 10 | 247 | 0.0 | 14.5 | 0.03 | 0.64 | 0.23 | 84 | 1009.7 |
| 20260510130001 | 10 | 210 | 0.0 | 6.4 | 0.03 | 0.69 | 0.23 | 84 | 1008.9 |
| 20260510123002 | 7 | 208 | 0.0 | 0.0 | 0.00 | 0.69 | 0.20 | 85 | 1008.4 |
| 20260510120003 | 7 | 208 | 0.0 | 0.0 | 0.00 | 0.76 | 0.20 | 85 | 1007.7 |
| 20260510113002 | 7 | 208 | 0.0 | 0.0 | 0.00 | 0.76 | 0.20 | 85 | 1007.5 |
| 20260510110002 | 7 | 208 | 0.0 | 0.0 | 0.00 | 0.76 | 0.20 | 85 | 1007.0 |
| 20260510103003 | 7 | 208 | 0.0 | 0.0 | 0.00 | 0.76 | 0.20 | 85 | 1006.8 |
| 20260510100002 | 6 | 208 | 0.0 | 1.6 | 0.00 | 0.76 | 0.20 | 85 | 1006.2 |
| 20260510093002 | 6 | 208 | 0.0 | 3.2 | 0.00 | 0.76 | 0.20 | 85 | 1006.0 |
| 20260510090002 | 6 | 165 | 0.0 | 0.0 | 0.00 | 0.76 | 0.20 | 85 | 1005.9 |
| 20260510083002 | 7 | 165 | 0.0 | 1.6 | 0.00 | 0.76 | 0.20 | 85 | 1005.5 |
| 20260510080002 | 8 | 210 | 0.0 | 0.0 | 0.00 | 0.76 | 0.20 | 84 | 1005.7 |
| 20260510073002 | 8 | 210 | 0.0 | 0.0 | 0.00 | 0.76 | 0.20 | 84 | 1005.7 |
| 20260510070002 | 8 | 210 | 0.0 | 0.0 | 0.00 | 0.76 | 0.20 | 84 | 1005.3 |
| 20260510063017 | 8 | 210 | 0.0 | 1.6 | 0.15 | 0.76 | 0.20 | 84 | 1005.7 |
| 20260510060002 | 8 | 117 | 1.6 | 1.6 | 0.18 | 0.76 | 0.20 | 84 | 1005.4 |
| 20260510053002 | 8 | 257 | 0.0 | 0.0 | 0.05 | 0.61 | 0.05 | 84 | 1006.8 |
| 20260510050002 | 8 | 257 | 0.0 | 0.0 | 0.03 | 0.58 | 0.03 | 85 | 1006.2 |
| 20260510043002 | 7 | 257 | 0.0 | 1.6 | 0.00 | 0.56 | 0.00 | 85 | 1005.9 |
| 20260510040002 | 7 | 207 | 0.0 | 3.2 | 0.00 | 0.56 | 0.00 | 85 | 1005.4 |
| 20260510033002 | 7 | 214 | 0.0 | 3.2 | 0.00 | 0.56 | 0.56 | 85 | 1005.3 |
| 20260510030002 | 7 | 201 | 0.0 | 3.2 | 0.00 | 0.56 | 0.56 | 85 | 1005.3 |
| 20260510023002 | 8 | 217 | 0.0 | 1.6 | 0.00 | 0.56 | 0.56 | 85 | 1005.0 |
| 20260510020003 | 8 | 217 | 0.0 | 1.6 | 0.00 | 0.56 | 0.56 | 85 | 1005.3 |
| 20260510013002 | 8 | 217 | 0.0 | 3.2 | 0.00 | 0.56 | 0.56 | 85 | 1005.0 |
| 20260510010018 | 8 | 194 | 0.0 | 1.6 | 0.00 | 0.56 | 0.56 | 86 | 1004.7 |
| 20260510003003 | 10 | 142 | 0.0 | 1.6 | 0.00 | 0.56 | 0.56 | 86 | 1004.5 |
| 20260510000002 | 10 | 142 | 0.0 | 0.0 | 0.00 | 0.56 | 0.56 | 85 | 1004.6 |
| 20260509233002 | 10 | 142 | 0.0 | 0.0 | 0.00 | 0.56 | 0.56 | 85 | 1004.4 |
| 20260509230003 | 11 | 141 | 0.0 | 1.6 | 0.00 | 0.56 | 0.56 | 86 | 1004.2 |
| 20260509223003 | 11 | 142 | 0.0 | 1.6 | 0.00 | 0.56 | 0.56 | 87 | 1004.1 |
| 20260509220003 | 11 | 93 | 0.0 | 3.2 | 0.00 | 0.56 | 0.56 | 88 | 1004.2 |
| 20260509213003 | 11 | 92 | 3.2 | 4.8 | 0.00 | 0.56 | 0.56 | 86 | 1004.5 |
| 20260509210003 | 10 | 89 | 0.0 | 4.8 | 0.00 | 0.56 | 0.56 | 86 | 1004.9 |
| 20260509203004 | 10 | 96 | 4.8 | 4.8 | 0.00 | 0.56 | 0.56 | 86 | 1005.1 |
| 20260509200004 | 10 | 97 | 0.0 | 4.8 | 0.00 | 0.56 | 0.56 | 86 | 1005.1 |
| 20260509193003 | 10 | 109 | 0.0 | 1.6 | 0.00 | 0.56 | 0.56 | 86 | 1005.6 |
| 20260509190005 | 10 | 149 | 0.0 | 0.0 | 0.00 | 0.56 | 0.56 | 85 | 1005.8 |
| 20260509183018 | 10 | 150 | 0.0 | 0.0 | 0.00 | 0.56 | 0.56 | 85 | 1005.9 |
| 20260509180003 | 9 | 148 | 0.0 | 3.2 | 0.00 | 0.56 | 0.56 | 85 | 1005.9 |